Regional Weather Roundup
Issued by NWS

Home | Current Version | Previous Version | Text Only | Print | Product List | Glossary On
Versions: 1 2 3 4 5 6 7 8 9 10 11 12 13 14 15 16 17 18 19 20 21 22 23 24 25 26 27 28 29 30 31 32 33 34 35 36 37 38 39 40 41 42 43 44 45 46 47 48 49 50
000
ASUS42 KFFC 240510
RWRGA
WEATHER ROUNDUP FOR GEORGIA
NATIONAL WEATHER SERVICE PEACHTREE CITY GA
100 AM EDT TUE APR 24 2018

NOTE: "FAIR" INDICATES FEW OR NO CLOUDS BELOW 12,000 FEET WITH NO
SIGNIFICANT WEATHER AND/OR OBSTRUCTIONS TO VISIBILITY.

* = USE WITH CAUTION. THE STATIONS MARKED WITH AN ASTERISK MAY NOT
REPORT WEATHER SUCH AS PRECIPITATION, FOG, OR THUNDER AND ARE NOT
QUALITY CONTROLLED BY NWS.

THE REMARK "TC" DENOTES TEMPERATURE READING IN DEGREES CELSIUS.

GAZ001>058-240600-
NORTH GEORGIA

CITY           SKY/WX    TMP DP  RH WIND       PRES   REMARKS
ATLANTA        LGT RAIN  61  61 100 NW6       29.86S
ATHENS         CLOUDY    61  61 100 E10G21    29.87F
CHAMBLEE       HVY RAIN  59  57  93 NE6       29.85F FOG
PEACHTREE CITY CLOUDY    63  61  93 CALM      29.87R
ROME           CLOUDY    60  60 100 N3        29.88S
WEST ATLANTA   RAIN      60  60 100 CALM      29.86S FOG
GAINESVILLE    LGT RAIN  58  58 100 NE8       29.90F
CARTERSVILLE   CLOUDY    59  59 100 E5        29.88F


CITY           SKY/WX    TMP DP  RH WIND       PRES   REMARKS
DALTON*        LGT RAIN  59  59 100 CALM      29.90F
LAWRENCEVILLE* CLOUDY   N/A N/A N/A NE10        N/A  FOG
MARIETTA       LGT RAIN  59  58  95 CALM      29.87S FOG
KENNESAW*      CLOUDY    59  57  93 CALM      29.88S
CANTON*        LGT RAIN  59  57  94 E7        29.89S
BLAIRSVILLE*   LGT RAIN  57  54  91 E10       29.91S
$$

GAZ059>098-102>109-240600-
CENTRAL GEORGIA

CITY           SKY/WX    TMP DP  RH WIND       PRES   REMARKS
AUGUSTA-BUSH   TSTM      66  65  96 S7        29.90S FOG
AUGUSTA-DANIEL LGT RAIN  67  66  97 S8        29.91R
COLUMBUS       FAIR      64  53  67 W8        29.89R
MACON          FAIR      64  64 100 S5        29.85F
ROBINS AFB     CLEAR     63  62  99 SE6       29.85S


CITY           SKY/WX    TMP DP  RH WIND       PRES   REMARKS
LAGRANGE*      FAIR      62  60  94 W5        29.88F
SYLVANIA*      CLOUDY    70  70 100 W5        29.92S
MILLEDGEVILLE* FAIR      64  64 100 S6        29.86S
$$

GAZ099>101-110>166-240600-
SOUTH GEORGIA

CITY           SKY/WX    TMP DP  RH WIND       PRES   REMARKS
SAVANNAH       FAIR      68  66  93 S9        29.91R
VALDOSTA       FAIR      64  62  93 SW3       29.91S
ALMA           FAIR      69  65  86 SW6       29.89S
ST SIMONS      FAIR      69  68  96 S9        29.90F
FT STEWART     CLOUDY    69  67  94 S6        29.88S
ALBANY         FAIR      63  52  67 SW6       29.92R
HUNTER AFB     FAIR      67  65  91 S6        29.88S
MOODY AFB      FAIR      65  62  90 S8        29.90R
BRUNSWICK      FAIR      68  64  88 S6        29.92S


CITY           SKY/WX    TMP DP  RH WIND       PRES   REMARKS
BAINBRIDGE*      N/A     63  61  94 SW8       29.92S
MOULTRIE*      FAIR      63  54  72 SW8       29.93R
VIDALIA*       FAIR      66  64  94 SE3       29.88F
WAYCROSS*      FAIR      69  66  90 SW10      29.90S
DOUGLAS*       FAIR      66  63  88 SW6       29.91S
$$



USA.gov is the U.S. government's official web portal to all federal, state and local government web resources and services.